[[{"header":{"parameterUnit":"m.s-1","parameterCategory":1,"la1":30.2992,"la2":30.254,"lo1":-89.0895,"lo2":-89.0443,"dy":0.0025,"dx":0.0025,"nx":19,"ny":19,"refTime":"2026-04-02T09:00:00:Z","depth":0,"parameterNumber":2,"parameterNumberName":"U-component_of_WINDS"},"data":[0,0,0,-4.2568,-4.2571,-4.2698,-4.2698,-4.2866,-4.2867,0,0,0,0,0,0,0,0,0,0,0,-4.2535,-4.2536,-4.2568,-4.2571,-4.2698,-4.2698,-4.2866,-4.2867,0,0,0,0,0,0,0,0,0,0,0,-4.2534,-4.2536,-4.2537,-4.2572,-4.2697,-4.2698,-4.2865,-4.2767,0,0,0,0,0,0,0,0,0,0,-4.2643,-4.2617,-4.2535,-4.2537,-4.2572,-4.2697,-4.2698,-4.2763,-4.2773,-4.2811,0,-4.2847,0,-4.286,-4.2879,-4.288,0,0,0,-4.2568,-4.2608,-4.2638,-4.2538,-4.2574,-4.2697,-4.264,-4.2769,-4.2781,-4.2826,-4.2849,-4.2855,-4.2863,-4.288,-4.2881,-4.3112,-4.3114,0,0,-4.2561,-4.2559,-4.263,-4.2647,-4.2628,-4.2636,-4.2644,-4.2776,-4.2801,-4.2849,-4.2859,-4.2865,-4.2881,-4.2883,-4.3111,-4.3113,0,0,0,-4.2543,-4.2555,-4.2582,-4.264,-4.2662,-4.2639,-4.2648,-4.2795,-4.2804,-4.2861,-4.2867,-4.2882,-4.2884,-4.311,-4.3112,-4.3171,0,0,0,-4.2539,-4.2544,-4.2579,-4.2579,-4.266,-4.273,-4.2664,-4.2795,-4.281,-4.2867,-4.2882,-4.2886,-4.3109,-4.3111,-4.3166,-4.3198,0,0,0,-4.2525,-4.2543,-4.2563,-4.2579,-4.2634,-4.2728,-4.2745,-4.2798,-4.2814,-4.288,-4.2887,-4.3108,-4.311,-4.3162,-4.3192,-4.3258,0,0,0,-4.251,-4.2613,-4.2564,-4.2682,-4.2633,-4.2765,-4.2744,-4.2842,-4.2906,-4.2883,-4.3109,-4.3112,-4.3161,-4.3188,-4.3254,-4.3312,-4.3337,0,0,-4.2639,-4.2629,-4.2699,-4.2658,-4.2798,-4.2746,-4.2895,-4.2954,-4.2961,-4.3061,-4.3067,-4.3168,-4.3191,-4.3257,-4.348,-4.35,0,0,0,-4.2739,-4.2789,-4.2827,-4.2888,-4.2937,-4.298,-4.3017,-4.304,-4.3125,-4.3013,-4.3211,-4.3225,-4.3264,-4.3291,-4.3308,-4.3341,-4.3125,-4.3125,-4.3125,-4.2918,-4.2923,-4.3039,-4.306,-4.312,-4.3158,-4.3206,-4.3242,-4.3229,-4.3276,-4.3305,-4.344,-4.3472,-4.3485,-4.3519,-4.3338,-4.3338,-4.3339,-4.3339,-4.3107,-4.3177,-4.316,-4.3265,-4.327,-4.3358,-4.34,-4.3388,-4.3471,-4.3418,-4.3452,-4.3392,-4.3506,-4.3536,-4.3343,-4.3342,-4.3342,-4.3341,-4.3341,-4.3222,-4.3257,-4.3284,-4.3373,-4.3442,-4.346,-4.3541,-4.3543,-4.3545,-4.3579,-4.3609,-4.3608,-4.3606,-4.3594,-4.3595,-4.3595,-4.3595,-4.3596,-4.3596,-4.333,-4.3359,-4.3427,-4.3489,-4.3529,-4.3582,-4.3623,-4.3662,-4.3706,-4.3701,-4.3701,-4.3683,-4.3518,-4.3475,-4.3603,-4.3602,-4.3601,-4.36,-4.36,-4.3515,-4.3474,-4.3579,-4.3619,-4.3693,-4.376,-4.3764,-4.3844,-4.3877,-4.3917,-4.3893,-4.3771,-4.3759,-4.3746,-4.371,-4.3892,-4.3892,-4.3892,-4.3892,-4.361,-4.3606,-4.3714,-4.3778,-4.3842,-4.3856,-4.3974,-4.4008,-4.4036,-4.4057,-4.4032,-4.3985,-4.3972,-4.3968,-4.395,-4.3917,-4.4147,-4.4147,-4.4147,-4.3723,-4.3725,-4.3825,-4.3853,-4.3912,-4.3961,-4.4072,-4.4147,-4.4171,-4.4158,-4.4073,-4.4062,-4.3987,-4.3963,-4.3945,-4.3916,-4.3855,0,0]},{"header":{"parameterUnit":"m.s-1","parameterCategory":1,"la1":30.2992,"la2":30.254,"lo1":-89.0895,"lo2":-89.0443,"dy":0.0025,"dx":0.0025,"nx":19,"ny":19,"refTime":"2026-04-02T09:00:00:Z","depth":0,"parameterNumber":3,"parameterNumberName":"V-component_of_WINDS"},"data":[0,0,0,2.6893,2.6894,2.6935,2.6935,2.6993,2.6993,0,0,0,0,0,0,0,0,0,0,0,2.6884,2.6885,2.6893,2.6894,2.6935,2.6935,2.6993,2.6993,0,0,0,0,0,0,0,0,0,0,0,2.6884,2.6885,2.6885,2.6894,2.6935,2.6935,2.6993,2.696,0,0,0,0,0,0,0,0,0,0,2.6919,2.6914,2.6885,2.6885,2.6895,2.6935,2.6935,2.6958,2.6962,2.6977,0,2.6991,0,2.6993,2.6998,2.6998,0,0,0,2.6891,2.6911,2.6919,2.6885,2.6895,2.6935,2.6916,2.696,2.6964,2.6982,2.6992,2.6994,2.6994,2.6998,2.6998,2.7097,2.7097,0,0,2.6889,2.6893,2.6916,2.6922,2.6917,2.6915,2.6917,2.6962,2.6974,2.6992,2.6995,2.6995,2.6998,2.6999,2.7096,2.7097,0,0,0,2.6884,2.6892,2.6899,2.692,2.6927,2.6916,2.6919,2.6972,2.6974,2.6996,2.6996,2.6999,2.7,2.7096,2.7097,2.7131,0,0,0,2.6883,2.6889,2.6898,2.6901,2.6927,2.695,2.6927,2.6971,2.6976,2.6996,2.6999,2.7,2.7095,2.7096,2.7129,2.7146,0,0,0,2.688,2.6889,2.6896,2.6901,2.6919,2.6949,2.6954,2.6971,2.6976,2.6998,2.7,2.7094,2.7096,2.7127,2.7143,2.7174,0,0,0,2.6879,2.6924,2.6897,2.6948,2.6919,2.6971,2.6953,2.6991,2.7014,2.6999,2.7095,2.7096,2.7126,2.714,2.7172,2.7201,2.7214,0,0,2.6939,2.6932,2.6962,2.6938,2.6997,2.6964,2.7027,2.7043,2.7041,2.7078,2.7081,2.7129,2.7142,2.7174,2.7284,2.7294,0,0,0,2.6983,2.7004,2.7019,2.7042,2.7057,2.7071,2.7078,2.7084,2.7116,2.7061,2.7149,2.7157,2.7175,2.7189,2.7197,2.7213,2.7103,2.7103,2.7103,2.7072,2.7069,2.7119,2.7121,2.7144,2.7152,2.717,2.718,2.7167,2.7189,2.7199,2.7267,2.7284,2.729,2.7306,2.7215,2.7215,2.7215,2.7215,2.7161,2.7191,2.7177,2.722,2.7217,2.7253,2.7263,2.7253,2.7286,2.7258,2.7274,2.7243,2.7301,2.7315,2.7218,2.7217,2.7217,2.7217,2.7216,2.7219,2.7233,2.7242,2.7277,2.7304,2.7304,2.7338,2.7332,2.7327,2.7343,2.7355,2.7354,2.7353,2.7349,2.735,2.735,2.735,2.735,2.735,2.7276,2.7285,2.7314,2.7336,2.7352,2.7371,2.7382,2.7396,2.7411,2.7405,2.7405,2.7391,2.7308,2.7287,2.7354,2.7353,2.7353,2.7352,2.7352,2.7366,2.7345,2.7391,2.7407,2.7433,2.7462,2.7456,2.7487,2.7498,2.7515,2.7499,2.7439,2.743,2.7423,2.7406,2.75,2.75,2.75,2.75,2.7415,2.7411,2.7458,2.7484,2.7509,2.7509,2.7561,2.757,2.7576,2.7583,2.7569,2.7546,2.7539,2.7535,2.7525,2.7509,2.7627,2.7627,2.7627,2.747,2.7469,2.7514,2.7522,2.7543,2.7562,2.7611,2.7641,2.7643,2.7632,2.7589,2.7583,2.7546,2.7534,2.752,2.7506,2.7476,0,0]}]]